Tracking 29528 objects as of 12-Sep-2024
HD Live streaming from Space Station
objects crossing your sky now

STARLINK-4536

Track STARLINK-4536 now!
10-day predictions
STARLINK-4536 is classified as:


NORAD ID: 53783
Int'l Code: 2022-111L
Perigee: 545.9 km
Apogee: 547.9 km
Inclination: 53.2 °
Period: 95.4 minutes
Semi major axis: 6917 km
RCS: Unknown
Launch date: September 11, 2022
Source: United States (US)
Launch site: AIR FORCE EASTERN TEST RANGE (AFETR)
Your satellite tracking list
Your tracking list is empty




NASA's NSSDC Master Catalog

Two Line Element Set (TLE):
1 53783U 22111L   24256.09943045  .00008739  00000-0  56650-3 0  9998
2 53783  53.2147 194.3110 0001488  87.5388 272.5774 15.08840375110826
Source of the keplerian elements: AFSPC